TimeCST,TemperatureF,Dew PointF,Humidity,Sea Level PressureIn,VisibilityMPH,Wind Direction,Wind SpeedMPH,Gust SpeedMPH,PrecipitationIn,Events,Conditions,WindDirDegrees,DateUTC
12:16 AM,33.8,28.4,81,30.11,2.5,East,3.5,-,N/A,,Overcast,90,2013-01-25 06:16:00
12:35 AM,33.8,28.4,81,30.10,1.8,East,5.8,-,N/A,,Overcast,80,2013-01-25 06:35:00
12:55 AM,32.0,28.4,87,30.11,2.0,NE,4.6,-,N/A,,Overcast,50,2013-01-25 06:55:00
1:15 AM,32.0,28.4,87,30.11,2.5,NE,5.8,-,N/A,,Overcast,50,2013-01-25 07:15:00
1:35 AM,32.0,28.4,87,30.11,2.0,ENE,5.8,-,N/A,,Overcast,60,2013-01-25 07:35:00
1:55 AM,30.2,28.4,93,30.09,2.5,East,5.8,-,N/A,,Overcast,100,2013-01-25 07:55:00
2:15 AM,30.2,28.4,93,30.09,3.0,ESE,6.9,-,N/A,,Overcast,110,2013-01-25 08:15:00
2:36 AM,32.0,28.4,87,30.09,3.0,East,4.6,-,N/A,,Overcast,100,2013-01-25 08:36:00
2:55 AM,32.0,28.4,87,30.09,4.0,NE,5.8,-,N/A,,Overcast,50,2013-01-25 08:55:00
3:15 AM,30.2,28.4,93,30.09,5.0,ENE,5.8,-,N/A,,Overcast,70,2013-01-25 09:15:00
3:55 AM,30.2,28.4,93,30.08,4.0,East,3.5,-,N/A,,Overcast,80,2013-01-25 09:55:00
4:15 AM,30.2,28.4,93,30.09,3.0,Calm,Calm,-,N/A,,Overcast,0,2013-01-25 10:15:00
4:55 AM,30.2,26.6,86,30.09,3.0,East,3.5,-,N/A,,Overcast,90,2013-01-25 10:55:00
5:15 AM,30.2,28.4,93,30.10,2.0,Calm,Calm,-,N/A,,Overcast,0,2013-01-25 11:15:00
5:35 AM,30.2,28.4,93,30.10,1.8,Calm,Calm,-,N/A,,Overcast,0,2013-01-25 11:35:00
5:55 AM,30.2,28.4,93,30.10,1.5,Calm,Calm,-,N/A,,Overcast,0,2013-01-25 11:55:00
6:15 AM,30.2,28.4,93,30.10,1.5,Calm,Calm,-,N/A,,Overcast,0,2013-01-25 12:15:00
6:35 AM,30.2,28.4,93,30.12,1.0,Calm,Calm,-,N/A,,Overcast,0,2013-01-25 12:35:00
6:55 AM,30.2,28.4,93,30.14,1.5,NNW,3.5,-,N/A,,Overcast,340,2013-01-25 12:55:00
7:35 AM,32.0,28.4,87,30.14,1.0,Calm,Calm,-,N/A,,Overcast,0,2013-01-25 13:35:00
7:55 AM,32.0,28.4,87,30.14,0.8,Calm,Calm,-,N/A,,Overcast,0,2013-01-25 13:55:00
8:35 AM,33.8,30.2,87,30.16,2.0,Calm,Calm,-,N/A,,Overcast,0,2013-01-25 14:35:00
8:55 AM,33.8,30.2,87,30.16,2.5,West,3.5,-,N/A,,Overcast,280,2013-01-25 14:55:00
9:15 AM,33.8,30.2,87,30.17,3.0,Calm,Calm,-,N/A,,Overcast,0,2013-01-25 15:15:00
9:55 AM,35.6,28.4,75,30.18,9.0,North,6.9,-,N/A,,Overcast,350,2013-01-25 15:55:00
10:15 AM,35.6,28.4,75,30.18,9.0,NNW,6.9,-,N/A,,Overcast,340,2013-01-25 16:15:00
10:35 AM,37.4,28.4,70,30.18,9.0,NNW,4.6,-,N/A,,Overcast,340,2013-01-25 16:35:00
10:55 AM,37.4,30.2,75,30.19,9.0,NNW,3.5,-,N/A,,Overcast,340,2013-01-25 16:55:00
11:15 AM,37.4,30.2,75,30.19,9.0,NW,3.5,-,N/A,,Overcast,320,2013-01-25 17:15:00
11:35 AM,39.2,30.2,70,30.19,9.0,North,4.6,-,N/A,,Overcast,10,2013-01-25 17:35:00
12:15 PM,41.0,30.2,65,30.17,10.0,NNW,3.5,-,N/A,,Clear,330,2013-01-25 18:15:00
12:35 PM,41.0,30.2,65,30.18,10.0,NNW,5.8,-,N/A,,Clear,330,2013-01-25 18:35:00
12:55 PM,42.8,30.2,61,30.17,10.0,North,4.6,-,N/A,,Clear,10,2013-01-25 18:55:00
1:35 PM,46.4,30.2,53,30.17,10.0,NW,4.6,-,N/A,,Clear,310,2013-01-25 19:35:00
2:15 PM,48.2,30.2,50,30.16,10.0,North,5.8,-,N/A,,Clear,360,2013-01-25 20:15:00
2:35 PM,48.2,30.2,50,30.16,10.0,North,6.9,-,N/A,,Clear,360,2013-01-25 20:35:00
3:15 PM,48.2,28.4,46,30.16,10.0,North,4.6,-,N/A,,Clear,360,2013-01-25 21:15:00
3:35 PM,48.2,28.4,46,30.16,10.0,North,6.9,-,N/A,,Clear,350,2013-01-25 21:35:00
3:55 PM,48.2,28.4,46,30.16,10.0,North,3.5,-,N/A,,Clear,10,2013-01-25 21:55:00
4:35 PM,48.2,28.4,46,30.16,10.0,ENE,5.8,-,N/A,,Clear,60,2013-01-25 22:35:00
4:55 PM,46.4,26.6,46,30.17,10.0,ENE,4.6,-,N/A,,Clear,60,2013-01-25 22:55:00
5:15 PM,46.4,26.6,46,30.18,10.0,NE,3.5,-,N/A,,Clear,50,2013-01-25 23:15:00
5:36 PM,44.6,26.6,49,30.18,10.0,NE,3.5,-,N/A,,Clear,40,2013-01-25 23:36:00
5:55 PM,44.6,26.6,49,30.19,10.0,NE,3.5,-,N/A,,Clear,40,2013-01-25 23:55:00
6:15 PM,44.6,26.6,49,30.19,10.0,ENE,3.5,-,N/A,,Clear,60,2013-01-26 00:15:00
6:55 PM,42.8,26.6,53,30.19,10.0,Calm,Calm,-,N/A,,Clear,0,2013-01-26 00:55:00
7:15 PM,41.0,26.6,57,30.19,10.0,NNE,3.5,-,N/A,,Clear,20,2013-01-26 01:15:00
7:55 PM,41.0,28.4,61,30.18,10.0,NNE,4.6,-,N/A,,Clear,30,2013-01-26 01:55:00
8:15 PM,42.8,26.6,53,30.19,10.0,NE,3.5,-,N/A,,Clear,40,2013-01-26 02:15:00
8:35 PM,41.0,26.6,57,30.20,10.0,NE,3.5,-,N/A,,Clear,50,2013-01-26 02:35:00
8:56 PM,39.2,26.6,61,30.20,10.0,Calm,Calm,-,N/A,,Clear,0,2013-01-26 02:56:00
9:15 PM,41.0,26.6,57,30.20,10.0,ENE,4.6,-,N/A,,Clear,60,2013-01-26 03:15:00
9:35 PM,39.2,26.6,61,30.21,10.0,NE,3.5,-,N/A,,Clear,40,2013-01-26 03:35:00
9:55 PM,39.2,26.6,61,30.22,10.0,Calm,Calm,-,N/A,,Clear,0,2013-01-26 03:55:00
10:15 PM,39.2,26.6,61,30.21,10.0,NE,5.8,-,N/A,,Clear,50,2013-01-26 04:15:00
10:35 PM,39.2,26.6,61,30.22,10.0,Calm,Calm,-,N/A,,Clear,0,2013-01-26 04:35:00
10:55 PM,37.4,26.6,65,30.22,10.0,Calm,Calm,-,N/A,,Clear,0,2013-01-26 04:55:00
11:35 PM,37.4,26.6,65,30.23,10.0,ENE,3.5,-,N/A,,Clear,70,2013-01-26 05:35:00
11:55 PM,39.2,26.6,61,30.24,10.0,Calm,Calm,-,N/A,,Clear,0,2013-01-26 05:55:00